Regional Weather Roundup
Issued by NWS New Orleans/Baton Rouge, LA

Home | Current Version | Previous Version | Graphics & Text | Print | Product List | Glossary On
Versions: 1 2 3 4 5 6 7 8 9 10 11 12 13 14 15 16 17 18 19 20 21 22 23 24 25 26 27 28 29 30 31 32 33 34 35 36 37 38 39 40 41 42 43 44 45 46 47 48 49 50
082
ASUS44 KLIX 240710
RWRLIX
NEW ORLEANS REGIONAL WEATHER ROUNDUP
NATIONAL WEATHER SERVICE NEW ORLEANS LA
100 AM CST MON NOV 24 2014

NOTE: "FAIR" INDICATES FEW OR NO CLOUDS BELOW 12,000 FEET WITH NO
      SIGNIFICANT WEATHER AND/OR OBSTRUCTIONS TO VISIBILITY.
      SKY/WX - SKY CONDITION AND SIGNIFICANT WEATHER.
      TMP - AIR TEMPERATURE.     DP    - DEWPOINT TEMPERATURE.
      RH  - RELATIVE HUMIDITY.   PRES  - PRESSURE.
      HI  - HEAT INDEX.          WCI   - WIND CHILL INDEX.

*  THESE STATIONS ARE NOT NWS OR FAA STATIONS AND ARE NOT UNDER
   NWS QUALITY CONTROL.

LAZ038-040-048-061>063-065>067-069-240800-
SOUTHEAST LOUISIANA

CITY           SKY/WX    TMP DP  RH WIND       PRES   REMARKS
N.O. AUDUBON   NOT AVBL
N.O. INTL ARPT PTCLDY    65  63  93 S9        29.75R FOG
N.O. LAKEFRONT CLEAR     68  65  90 SW14      29.75S
N.O. DOWNTOWN*   N/A     68  63  83 S6        29.76R
SLIDELL        PTCLDY    67  65  93 CALM      29.74S
BATON ROUGE    CLEAR     66  63  90 SW10      29.72S
BOOTHVILLE     PTCLDY    67  67 100 S7        29.77S FOG
BELLE CHASSE   MOCLDY    67  64  90 SW5       29.75R
BOGALUSA*        N/A     70  65  83 SW12      29.75R
NEW ROADS*       N/A     65  64  96 S7        29.71S
GONZALES*      CLOUDY    64  64 100 CALM      29.74R FOG
HAMMOND*       CLOUDY    66  64  94 SW3       29.75R
HOUMA*         PTCLDY    66  65  99 CALM      29.75R FOG
PORT FOURCHON* MOSUNNY   70  68  94 SW6       29.79S FOG

$$

MSZ070-080>082-240800-
SOUTHERN MISSISSIPPI

CITY           SKY/WX    TMP DP  RH WIND       PRES   REMARKS
MCCOMB         CLOUDY    64  62  93 SW9       29.71S
GULFPORT       CLOUDY    65  65 100 S7        29.75S FOG
BILOXI         FOG       63  63 100 SW7       29.75S VSB 1/2
PASCAGOULA     CLOUDY    68  67  96 SW6       29.76S

$$

COASTAL OBSERVATIONS
LAKE AND NEARSHORE STATIONS

STATION/POSITION TIME  TEMP    WIND        PRES    WAVE
                       AIR SEA DIR/SP/G            HT/PER
                 (UTC) (F)     (DEG/KT/KT) (MB)    (FT/S)
PASCAGOULA       0700   66     200/ 11/ 13 1007.0
WAVELAND YACHT   0700   64     230/  4/  6 1006.6
GRAND ISLE       0700   70 65  230/  7/ 10 1008.2
SOUTHWEST PASS   0700   69                 1008.4
NEW CANAL        0700   68 56  210/  9/ 14 1007.5
SHELL BEACH      0700   67 54  200/  8/ 11 1007.3

OFFSHORE STATIONS

STATION/POSITION TIME  TEMP    WIND        PRES    WAVE
                       AIR SEA DIR/SP/G            HT/PER
                 (UTC) (F)     (DEG/KT/KT) (MB)    (FT/S)
64 S DAUPHIN ISL 0559   74 72  230/ 12/ 14 1008.9    6/ 8

$$




USA.gov is the U.S. government's official web portal to all federal, state and local government web resources and services.